Time,TemperatureF,DewpointF,PressureIn,WindDirection,WindDirectionDegrees,WindSpeedMPH,WindSpeedGustMPH,Humidity,HourlyPrecipIn,Conditions,Clouds,dailyrainin,SoftwareType,DateUTC
2013-06-11 00:00:00,76.2,44.2,29.52,South,183,0.0,0.0,32,0.00,,---,0.00,VWS V14.00,2013-06-11 06:00:00,
2013-06-11 00:06:00,75.1,44.1,29.52,South,183,0.0,0.0,33,0.00,,---,0.00,VWS V14.00,2013-06-11 06:06:00,
2013-06-11 00:12:00,74.7,43.7,29.52,North,0,0.0,0.0,33,0.00,,---,0.00,VWS V14.00,2013-06-11 06:12:00,
2013-06-11 00:17:00,74.2,44.1,29.54,South,184,0.0,0.0,34,0.00,,---,0.00,VWS V14.00,2013-06-11 06:17:00,
2013-06-11 00:22:00,73.7,44.4,29.53,South,184,0.0,0.0,35,0.00,,---,0.00,VWS V14.00,2013-06-11 06:22:00,
2013-06-11 00:27:00,73.3,44.0,29.53,South,184,0.0,0.0,35,0.00,,---,0.00,VWS V14.00,2013-06-11 06:27:00,
2013-06-11 00:32:00,73.0,43.8,29.53,South,184,0.0,0.0,35,0.00,,---,0.00,VWS V14.00,2013-06-11 06:32:00,
2013-06-11 00:37:00,72.8,44.3,29.53,South,184,0.0,0.0,36,0.00,,---,0.00,VWS V14.00,2013-06-11 06:37:00,
2013-06-11 00:42:00,72.5,44.8,29.53,South,184,0.0,0.0,37,0.00,,---,0.00,VWS V14.00,2013-06-11 06:42:00,
2013-06-11 00:47:00,72.1,44.4,29.54,South,183,0.0,0.0,37,0.00,,---,0.00,VWS V14.00,2013-06-11 06:47:00,
2013-06-11 00:52:00,71.8,44.8,29.53,South,183,0.0,0.0,38,0.00,,---,0.00,VWS V14.00,2013-06-11 06:52:00,
2013-06-11 00:57:00,71.5,43.9,29.53,South,184,0.0,0.0,37,0.00,,---,0.00,VWS V14.00,2013-06-11 06:57:00,
2013-06-11 01:02:00,71.2,44.3,29.54,South,184,0.0,0.0,38,0.00,,---,0.00,VWS V14.00,2013-06-11 07:02:00,
2013-06-11 01:07:00,70.8,44.6,29.54,South,183,0.0,0.0,39,0.00,,---,0.00,VWS V14.00,2013-06-11 07:07:00,
2013-06-11 01:12:00,70.5,44.4,29.53,South,183,0.0,0.0,39,0.00,,---,0.00,VWS V14.00,2013-06-11 07:12:00,
2013-06-11 01:17:00,70.1,44.7,29.54,South,184,0.0,0.0,40,0.00,,---,0.00,VWS V14.00,2013-06-11 07:17:00,
2013-06-11 01:22:00,69.5,44.8,29.54,South,183,0.0,0.0,41,0.00,,---,0.00,VWS V14.00,2013-06-11 07:22:00,
2013-06-11 01:27:00,69.2,43.9,29.54,South,183,0.0,0.0,40,0.00,,---,0.00,VWS V14.00,2013-06-11 07:27:00,
2013-06-11 01:32:00,69.0,44.3,29.54,South,184,0.0,0.0,41,0.00,,---,0.00,VWS V14.00,2013-06-11 07:32:00,
2013-06-11 01:37:00,68.8,44.8,29.55,South,184,0.0,0.0,42,0.00,,---,0.00,VWS V14.00,2013-06-11 07:37:00,
2013-06-11 01:42:00,68.5,44.5,29.54,South,184,0.0,0.0,42,0.00,,---,0.00,VWS V14.00,2013-06-11 07:42:00,
2013-06-11 01:47:00,68.3,43.7,29.55,South,183,0.0,0.0,41,0.00,,---,0.00,VWS V14.00,2013-06-11 07:47:00,
2013-06-11 01:52:00,68.0,44.1,29.55,South,184,0.0,0.0,42,0.00,,---,0.00,VWS V14.00,2013-06-11 07:52:00,
2013-06-11 01:57:00,67.8,43.9,29.55,South,184,0.0,0.0,42,0.00,,---,0.00,VWS V14.00,2013-06-11 07:57:00,
2013-06-11 02:02:00,67.5,44.2,29.54,South,183,0.0,0.0,43,0.00,,---,0.00,VWS V14.00,2013-06-11 08:02:00,
2013-06-11 02:07:00,67.3,44.1,29.55,South,184,0.0,0.0,43,0.00,,---,0.00,VWS V14.00,2013-06-11 08:07:00,
2013-06-11 02:12:00,67.1,43.9,29.55,South,184,0.0,0.0,43,0.00,,---,0.00,VWS V14.00,2013-06-11 08:12:00,
2013-06-11 02:17:00,66.8,43.6,29.55,South,184,0.0,0.0,43,0.00,,---,0.00,VWS V14.00,2013-06-11 08:17:00,
2013-06-11 02:23:00,66.5,43.9,29.54,South,184,0.0,0.0,44,0.00,,---,0.00,VWS V14.00,2013-06-11 08:23:00,
2013-06-11 02:28:00,66.2,44.2,29.54,South,183,0.0,0.0,45,0.00,,---,0.00,VWS V14.00,2013-06-11 08:28:00,
2013-06-11 02:33:00,66.0,43.5,29.54,South,184,0.0,0.0,44,0.00,,---,0.00,VWS V14.00,2013-06-11 08:33:00,
2013-06-11 02:38:00,65.9,43.4,29.54,South,184,0.0,0.0,44,0.00,,---,0.00,VWS V14.00,2013-06-11 08:38:00,
2013-06-11 02:43:00,65.8,44.5,29.54,South,183,0.0,0.0,46,0.00,,---,0.00,VWS V14.00,2013-06-11 08:43:00,
2013-06-11 02:49:00,65.6,44.3,29.55,South,183,0.0,0.0,46,0.00,,---,0.00,VWS V14.00,2013-06-11 08:49:00,
2013-06-11 02:54:00,65.3,43.4,29.57,South,184,0.0,0.0,45,0.00,,---,0.00,VWS V14.00,2013-06-11 08:54:00,
2013-06-11 02:59:00,65.2,43.3,29.57,South,184,0.0,0.0,45,0.00,,---,0.00,VWS V14.00,2013-06-11 08:59:00,
2013-06-11 03:04:00,65.0,42.6,29.56,South,184,0.0,0.0,44,0.00,,---,0.00,VWS V14.00,2013-06-11 09:04:00,
2013-06-11 03:09:00,64.9,43.1,29.56,South,183,0.0,0.0,45,0.00,,---,0.00,VWS V14.00,2013-06-11 09:09:00,
2013-06-11 03:14:00,64.8,42.4,29.56,South,184,0.0,0.0,44,0.00,,---,0.00,VWS V14.00,2013-06-11 09:14:00,
2013-06-11 03:19:00,64.7,42.9,29.56,South,183,0.0,0.0,45,0.00,,---,0.00,VWS V14.00,2013-06-11 09:19:00,
2013-06-11 03:24:00,64.6,42.8,29.56,South,183,0.0,0.0,45,0.00,,---,0.00,VWS V14.00,2013-06-11 09:24:00,
2013-06-11 03:29:00,64.5,42.7,29.56,South,184,0.0,0.0,45,0.00,,---,0.00,VWS V14.00,2013-06-11 09:29:00,
2013-06-11 03:34:00,64.5,42.7,29.56,South,184,0.0,0.0,45,0.00,,---,0.00,VWS V14.00,2013-06-11 09:34:00,
2013-06-11 03:39:00,64.3,42.5,29.57,South,184,0.0,0.0,45,0.00,,---,0.00,VWS V14.00,2013-06-11 09:39:00,
2013-06-11 03:44:00,64.2,42.4,29.57,South,183,0.0,0.0,45,0.00,,---,0.00,VWS V14.00,2013-06-11 09:44:00,
2013-06-11 03:49:00,64.1,42.3,29.57,South,184,0.0,0.0,45,0.00,,---,0.00,VWS V14.00,2013-06-11 09:49:00,
2013-06-11 03:55:00,63.9,42.2,29.57,South,184,0.0,0.0,45,0.00,,---,0.00,VWS V14.00,2013-06-11 09:55:00,
2013-06-11 04:00:00,63.8,42.1,29.57,South,183,0.0,0.0,45,0.00,,---,0.00,VWS V14.00,2013-06-11 10:00:00,
2013-06-11 04:05:00,63.6,42.5,29.59,South,183,0.0,0.0,46,0.00,,---,0.00,VWS V14.00,2013-06-11 10:05:00,
2013-06-11 04:10:00,63.4,42.3,29.59,South,184,0.0,0.0,46,0.00,,---,0.00,VWS V14.00,2013-06-11 10:10:00,
2013-06-11 04:15:00,63.2,42.1,29.59,South,184,0.0,0.0,46,0.00,,---,0.00,VWS V14.00,2013-06-11 10:15:00,
2013-06-11 04:20:00,63.1,42.6,29.59,South,184,0.0,0.0,47,0.00,,---,0.00,VWS V14.00,2013-06-11 10:20:00,
2013-06-11 04:25:00,62.9,42.4,29.59,South,183,0.0,0.0,47,0.00,,---,0.00,VWS V14.00,2013-06-11 10:25:00,
2013-06-11 04:30:00,62.6,42.1,29.60,South,184,0.0,0.0,47,0.00,,---,0.00,VWS V14.00,2013-06-11 10:30:00,
2013-06-11 04:36:00,62.4,41.9,29.61,South,184,0.0,0.0,47,0.00,,---,0.00,VWS V14.00,2013-06-11 10:36:00,
2013-06-11 04:42:00,62.2,42.3,29.61,South,184,0.0,0.0,48,0.00,,---,0.00,VWS V14.00,2013-06-11 10:42:00,
2013-06-11 04:48:00,62.0,42.1,29.61,South,184,0.0,0.0,48,0.00,,---,0.00,VWS V14.00,2013-06-11 10:48:00,
2013-06-11 04:53:00,61.8,42.5,29.61,South,183,0.0,0.0,49,0.00,,---,0.00,VWS V14.00,2013-06-11 10:53:00,
2013-06-11 04:59:00,61.5,42.2,29.61,South,183,0.0,0.0,49,0.00,,---,0.00,VWS V14.00,2013-06-11 10:59:00,
2013-06-11 05:04:00,61.3,42.5,29.61,South,183,0.0,0.0,50,0.00,,---,0.00,VWS V14.00,2013-06-11 11:04:00,
2013-06-11 05:09:00,61.1,42.3,29.61,South,184,0.0,0.0,50,0.00,,---,0.00,VWS V14.00,2013-06-11 11:09:00,
2013-06-11 05:15:00,60.9,42.7,29.61,South,184,0.0,0.0,51,0.00,,---,0.00,VWS V14.00,2013-06-11 11:15:00,
2013-06-11 05:20:00,60.7,42.5,29.62,South,184,0.0,0.0,51,0.00,,---,0.00,VWS V14.00,2013-06-11 11:20:00,
2013-06-11 05:25:00,60.5,42.3,29.62,South,183,0.0,0.0,51,0.00,,---,0.00,VWS V14.00,2013-06-11 11:25:00,
2013-06-11 05:30:00,60.3,42.1,29.62,South,184,0.0,0.0,51,0.00,,---,0.00,VWS V14.00,2013-06-11 11:30:00,
2013-06-11 05:35:00,60.1,41.9,29.63,South,184,0.0,0.0,51,0.00,,---,0.00,VWS V14.00,2013-06-11 11:35:00,
2013-06-11 05:40:00,60.0,41.8,29.63,South,183,0.0,0.0,51,0.00,,---,0.00,VWS V14.00,2013-06-11 11:40:00,
2013-06-11 05:45:00,59.8,42.2,29.64,South,184,0.0,0.0,52,0.00,,---,0.00,VWS V14.00,2013-06-11 11:45:00,
2013-06-11 05:50:00,59.8,42.2,29.64,South,184,0.0,0.0,52,0.00,,---,0.00,VWS V14.00,2013-06-11 11:50:00,
2013-06-11 05:55:00,59.7,42.1,29.64,South,184,0.0,0.0,52,0.00,,---,0.00,VWS V14.00,2013-06-11 11:55:00,
2013-06-11 06:00:00,59.6,42.0,29.64,South,183,0.0,0.0,52,0.00,,---,0.00,VWS V14.00,2013-06-11 12:00:00,
2013-06-11 06:05:00,59.5,41.9,29.64,South,184,0.0,0.0,52,0.00,,---,0.00,VWS V14.00,2013-06-11 12:05:00,
2013-06-11 06:10:00,59.5,42.4,29.64,South,184,0.0,0.0,53,0.00,,---,0.00,VWS V14.00,2013-06-11 12:10:00,
2013-06-11 06:15:00,59.6,42.5,29.64,South,183,0.0,0.0,53,0.00,,---,0.00,VWS V14.00,2013-06-11 12:15:00,
2013-06-11 06:20:00,59.7,42.1,29.64,South,184,0.0,0.0,52,0.00,,---,0.00,VWS V14.00,2013-06-11 12:20:00,
2013-06-11 06:26:00,60.3,41.1,29.64,SW,215,0.0,2.0,49,0.00,,---,0.00,VWS V14.00,2013-06-11 12:26:00,
2013-06-11 06:32:00,61.8,40.3,29.64,SSW,201,2.0,3.0,45,0.00,,---,0.00,VWS V14.00,2013-06-11 12:32:00,
2013-06-11 06:38:00,63.4,40.5,29.62,WSW,253,0.0,1.0,43,0.00,,---,0.00,VWS V14.00,2013-06-11 12:38:00,
2013-06-11 06:44:00,65.1,39.5,29.61,SW,227,0.0,7.0,39,0.00,,---,0.00,VWS V14.00,2013-06-11 12:44:00,
2013-06-11 06:49:00,66.1,40.5,29.61,SSW,205,0.0,1.0,39,0.00,,---,0.00,VWS V14.00,2013-06-11 12:49:00,
2013-06-11 06:54:00,67.2,40.1,29.60,South,184,0.0,3.0,37,0.00,,---,0.00,VWS V14.00,2013-06-11 12:54:00,
2013-06-11 06:59:00,67.8,41.3,29.59,South,184,0.0,0.0,38,0.00,,---,0.00,VWS V14.00,2013-06-11 12:59:00,
2013-06-11 07:04:00,68.3,41.7,29.60,South,190,0.0,0.0,38,0.00,,---,0.00,VWS V14.00,2013-06-11 13:04:00,
2013-06-11 07:09:00,69.0,41.0,29.60,SSW,194,0.0,3.0,36,0.00,,---,0.00,VWS V14.00,2013-06-11 13:09:00,
2013-06-11 07:14:00,69.8,40.9,29.59,SSW,198,2.0,4.0,35,0.00,,---,0.00,VWS V14.00,2013-06-11 13:14:00,
2013-06-11 07:19:00,70.8,41.1,29.60,SSW,209,3.0,3.0,34,0.00,,---,0.00,VWS V14.00,2013-06-11 13:19:00,
2013-06-11 07:24:00,71.5,40.1,29.59,WSW,245,2.0,5.0,32,0.00,,---,0.00,VWS V14.00,2013-06-11 13:24:00,
2013-06-11 07:29:00,72.2,39.9,29.59,SSW,200,2.0,10.0,31,0.00,,---,0.00,VWS V14.00,2013-06-11 13:29:00,
2013-06-11 07:34:00,72.7,41.2,29.58,SSW,206,3.0,4.0,32,0.00,,---,0.00,VWS V14.00,2013-06-11 13:34:00,
2013-06-11 07:39:00,73.1,42.3,29.59,SSW,196,2.0,5.0,33,0.00,,---,0.00,VWS V14.00,2013-06-11 13:39:00,
2013-06-11 07:44:00,73.2,41.6,29.58,South,191,1.0,3.0,32,0.00,,---,0.00,VWS V14.00,2013-06-11 13:44:00,
2013-06-11 07:49:00,73.6,42.0,29.58,South,190,1.0,2.0,32,0.00,,---,0.00,VWS V14.00,2013-06-11 13:49:00,
2013-06-11 07:54:00,74.0,41.5,29.58,SSW,205,2.0,3.0,31,0.00,,---,0.00,VWS V14.00,2013-06-11 13:54:00,
2013-06-11 07:59:00,74.5,42.7,29.58,SSW,206,0.0,1.0,32,0.00,,---,0.00,VWS V14.00,2013-06-11 13:59:00,
2013-06-11 08:04:00,74.9,44.7,29.58,South,171,0.0,0.0,34,0.00,,---,0.00,VWS V14.00,2013-06-11 14:04:00,
2013-06-11 08:09:00,75.4,42.7,29.57,SSW,207,0.0,1.0,31,0.00,,---,0.00,VWS V14.00,2013-06-11 14:09:00,
2013-06-11 08:14:00,75.3,44.2,29.57,SSW,213,0.0,1.0,33,0.00,,---,0.00,VWS V14.00,2013-06-11 14:14:00,
2013-06-11 08:19:00,75.9,44.0,29.57,SW,214,0.0,0.0,32,0.00,,---,0.00,VWS V14.00,2013-06-11 14:19:00,
2013-06-11 08:24:00,76.7,42.1,29.56,SSW,200,0.0,4.0,29,0.00,,---,0.00,VWS V14.00,2013-06-11 14:24:00,
2013-06-11 08:29:00,77.9,42.2,29.55,SSW,205,0.0,2.0,28,0.00,,---,0.00,VWS V14.00,2013-06-11 14:29:00,
2013-06-11 08:34:00,78.5,45.4,29.56,SW,229,1.0,2.0,31,0.00,,---,0.00,VWS V14.00,2013-06-11 14:34:00,
2013-06-11 08:39:00,79.0,44.1,29.54,SSW,210,5.0,5.0,29,0.00,,---,0.00,VWS V14.00,2013-06-11 14:39:00,
2013-06-11 08:44:00,79.1,44.2,29.55,SSE,147,2.0,2.0,29,0.00,,---,0.00,VWS V14.00,2013-06-11 14:44:00,
2013-06-11 08:49:00,79.2,44.2,29.55,SSW,205,0.0,1.0,29,0.00,,---,0.00,VWS V14.00,2013-06-11 14:49:00,
2013-06-11 08:54:00,79.5,45.4,29.54,SSW,201,0.0,1.0,30,0.00,,---,0.00,VWS V14.00,2013-06-11 14:54:00,
2013-06-11 08:59:00,79.7,43.8,29.54,South,172,0.0,3.0,28,0.00,,---,0.00,VWS V14.00,2013-06-11 14:59:00,
2013-06-11 09:04:00,79.8,43.8,29.56,SW,218,0.0,0.0,28,0.00,,---,0.00,VWS V14.00,2013-06-11 15:04:00,
2013-06-11 09:09:00,80.0,45.8,29.56,SW,218,1.0,1.0,30,0.00,,---,0.00,VWS V14.00,2013-06-11 15:09:00,
2013-06-11 09:14:00,80.4,48.7,29.55,SW,218,0.0,1.0,33,0.00,,---,0.00,VWS V14.00,2013-06-11 15:14:00,
2013-06-11 09:19:00,81.3,46.0,29.55,SW,219,0.0,0.0,29,0.00,,---,0.00,VWS V14.00,2013-06-11 15:19:00,
2013-06-11 09:24:00,82.1,45.8,29.54,SW,214,0.0,0.0,28,0.00,,---,0.00,VWS V14.00,2013-06-11 15:24:00,
2013-06-11 09:29:00,82.6,47.2,29.53,SW,214,0.0,0.0,29,0.00,,---,0.00,VWS V14.00,2013-06-11 15:29:00,
2013-06-11 09:34:00,83.0,45.6,29.52,SSW,195,0.0,4.0,27,0.00,,---,0.00,VWS V14.00,2013-06-11 15:34:00,
2013-06-11 09:39:00,83.7,46.2,29.53,SSW,195,0.0,0.0,27,0.00,,---,0.00,VWS V14.00,2013-06-11 15:39:00,
2013-06-11 09:44:00,84.3,47.7,29.52,SSW,197,0.0,0.0,28,0.00,,---,0.00,VWS V14.00,2013-06-11 15:44:00,
2013-06-11 09:49:00,83.9,47.3,29.52,SSE,161,0.0,2.0,28,0.00,,---,0.00,VWS V14.00,2013-06-11 15:49:00,
2013-06-11 09:54:00,84.0,47.4,29.52,SSE,164,0.0,1.0,28,0.00,,---,0.00,VWS V14.00,2013-06-11 15:54:00,
2013-06-11 09:59:00,83.9,46.4,29.52,SSE,163,0.0,0.0,27,0.00,,---,0.00,VWS V14.00,2013-06-11 15:59:00,
2013-06-11 10:04:00,84.0,49.3,29.51,SE,137,0.0,1.0,30,0.00,,---,0.00,VWS V14.00,2013-06-11 16:04:00,
2013-06-11 10:09:00,84.9,45.2,29.51,SE,137,0.0,1.0,25,0.00,,---,0.00,VWS V14.00,2013-06-11 16:09:00,
2013-06-11 10:14:00,86.2,49.3,29.49,SE,137,0.0,1.0,28,0.00,,---,0.00,VWS V14.00,2013-06-11 16:14:00,
2013-06-11 10:19:00,87.3,46.1,29.49,ESE,123,0.0,3.0,24,0.00,,---,0.00,VWS V14.00,2013-06-11 16:19:00,
2013-06-11 10:24:00,87.7,46.5,29.48,ENE,58,0.0,1.0,24,0.00,,---,0.00,VWS V14.00,2013-06-11 16:24:00,
2013-06-11 10:29:00,88.7,43.8,29.49,SE,136,0.0,2.0,21,0.00,,---,0.00,VWS V14.00,2013-06-11 16:29:00,
2013-06-11 10:34:00,89.2,40.2,29.48,SW,218,0.0,2.0,18,0.00,,---,0.00,VWS V14.00,2013-06-11 16:34:00,
2013-06-11 10:39:00,89.3,41.7,29.49,SW,229,0.0,1.0,19,0.00,,---,0.00,VWS V14.00,2013-06-11 16:39:00,
2013-06-11 10:44:00,89.6,45.8,29.48,ESE,111,0.0,2.0,22,0.00,,---,0.00,VWS V14.00,2013-06-11 16:44:00,
2013-06-11 10:49:00,89.9,42.2,29.47,SSW,210,0.0,7.0,19,0.00,,---,0.00,VWS V14.00,2013-06-11 16:49:00,
2013-06-11 10:54:00,90.4,41.2,29.47,SW,230,4.0,5.0,18,0.00,,---,0.00,VWS V14.00,2013-06-11 16:54:00,
2013-06-11 10:59:00,90.7,41.4,29.47,SSW,198,0.0,6.0,18,0.00,,---,0.00,VWS V14.00,2013-06-11 16:59:00,
2013-06-11 11:04:00,91.1,40.3,29.48,SSW,201,5.0,9.0,17,0.00,,---,0.00,VWS V14.00,2013-06-11 17:04:00,
2013-06-11 11:09:00,91.4,40.5,29.48,SW,214,5.0,10.0,17,0.00,,---,0.00,VWS V14.00,2013-06-11 17:09:00,
2013-06-11 11:14:00,91.1,38.7,29.48,SW,222,5.0,6.0,16,0.00,,---,0.00,VWS V14.00,2013-06-11 17:14:00,
2013-06-11 11:19:00,91.2,43.2,29.47,SW,227,2.0,7.0,19,0.00,,---,0.00,VWS V14.00,2013-06-11 17:19:00,
2013-06-11 11:24:00,91.2,37.2,29.47,SSW,213,0.0,6.0,15,0.00,,---,0.00,VWS V14.00,2013-06-11 17:24:00,
2013-06-11 11:29:00,91.5,40.6,29.47,SW,232,0.0,15.0,17,0.00,,---,0.00,VWS V14.00,2013-06-11 17:29:00,
2013-06-11 11:34:00,92.2,39.6,29.45,SW,223,0.0,7.0,16,0.00,,---,0.00,VWS V14.00,2013-06-11 17:34:00,
2013-06-11 11:39:00,92.4,41.3,29.46,South,189,8.0,10.0,17,0.00,,---,0.00,VWS V14.00,2013-06-11 17:39:00,
2013-06-11 11:44:00,92.2,36.2,29.45,South,179,1.0,11.0,14,0.00,,---,0.00,VWS V14.00,2013-06-11 17:44:00,
2013-06-11 11:49:00,92.6,41.5,29.46,South,175,0.0,2.0,17,0.00,,---,0.00,VWS V14.00,2013-06-11 17:49:00,
2013-06-11 11:54:00,92.8,36.7,29.46,SSW,196,2.0,6.0,14,0.00,,---,0.00,VWS V14.00,2013-06-11 17:54:00,
2013-06-11 11:59:00,93.3,38.8,29.45,SW,222,2.0,4.0,15,0.00,,---,0.00,VWS V14.00,2013-06-11 17:59:00,
2013-06-11 12:04:00,93.7,39.1,29.47,SW,215,0.0,5.0,15,0.00,,---,0.00,VWS V14.00,2013-06-11 18:04:00,
2013-06-11 12:09:00,94.0,37.6,29.47,SSW,194,5.0,12.0,14,0.00,,---,0.00,VWS V14.00,2013-06-11 18:09:00,
2013-06-11 12:14:00,93.7,37.4,29.47,South,190,1.0,4.0,14,0.00,,---,0.00,VWS V14.00,2013-06-11 18:14:00,
2013-06-11 12:19:00,93.9,39.3,29.47,South,186,3.0,4.0,15,0.00,,---,0.00,VWS V14.00,2013-06-11 18:19:00,
2013-06-11 12:24:00,93.8,39.2,29.46,South,180,3.0,4.0,15,0.00,,---,0.00,VWS V14.00,2013-06-11 18:24:00,
2013-06-11 12:29:00,94.0,35.7,29.46,SSW,198,2.0,4.0,13,0.00,,---,0.00,VWS V14.00,2013-06-11 18:29:00,
2013-06-11 12:34:00,94.5,38.0,29.44,SSW,192,7.0,13.0,14,0.00,,---,0.00,VWS V14.00,2013-06-11 18:34:00,
2013-06-11 12:39:00,95.2,38.5,29.44,SSW,194,3.0,3.0,14,0.00,,---,0.00,VWS V14.00,2013-06-11 18:39:00,
2013-06-11 12:44:00,95.4,36.8,29.44,SW,217,1.0,3.0,13,0.00,,---,0.00,VWS V14.00,2013-06-11 18:44:00,
2013-06-11 12:49:00,94.1,37.7,29.45,South,183,1.0,3.0,14,0.00,,---,0.00,VWS V14.00,2013-06-11 18:49:00,
2013-06-11 12:54:00,94.9,41.7,29.44,SSE,167,1.0,6.0,16,0.00,,---,0.00,VWS V14.00,2013-06-11 18:54:00,
2013-06-11 12:59:00,95.4,38.7,29.44,SE,141,1.0,2.0,14,0.00,,---,0.00,VWS V14.00,2013-06-11 18:59:00,
2013-06-11 13:05:00,95.5,42.2,29.45,SSE,157,1.0,4.0,16,0.00,,---,0.00,VWS V14.00,2013-06-11 19:05:00,
2013-06-11 13:10:00,96.1,35.3,29.45,SSE,154,2.0,10.0,12,0.00,,---,0.00,VWS V14.00,2013-06-11 19:10:00,
2013-06-11 13:15:00,96.5,37.7,29.44,South,179,3.0,12.0,13,0.00,,---,0.00,VWS V14.00,2013-06-11 19:15:00,
2013-06-11 13:20:00,96.4,35.6,29.45,South,178,1.0,15.0,12,0.00,,---,0.00,VWS V14.00,2013-06-11 19:20:00,
2013-06-11 13:27:00,96.7,35.8,29.44,SSW,192,1.0,11.0,12,0.00,,---,0.00,VWS V14.00,2013-06-11 19:27:00,
2013-06-11 13:32:00,96.9,39.9,29.44,SE,135,0.0,5.0,14,0.00,,---,0.00,VWS V14.00,2013-06-11 19:32:00,
2013-06-11 13:37:00,97.0,33.8,29.45,South,178,6.0,10.0,11,0.00,,---,0.00,VWS V14.00,2013-06-11 19:37:00,
2013-06-11 13:42:00,97.1,41.8,29.44,SSE,166,3.0,6.0,15,0.00,,---,0.00,VWS V14.00,2013-06-11 19:42:00,
2013-06-11 13:47:00,96.8,37.9,29.44,South,191,0.0,5.0,13,0.00,,---,0.00,VWS V14.00,2013-06-11 19:47:00,
2013-06-11 13:52:00,97.5,38.5,29.44,South,190,0.0,4.0,13,0.00,,---,0.00,VWS V14.00,2013-06-11 19:52:00,
2013-06-11 13:57:00,97.7,34.4,29.43,SSE,150,2.0,6.0,11,0.00,,---,0.00,VWS V14.00,2013-06-11 19:57:00,
2013-06-11 14:02:00,97.4,36.3,29.45,South,183,0.0,9.0,12,0.00,,---,0.00,VWS V14.00,2013-06-11 20:02:00,
2013-06-11 14:08:00,97.5,38.5,29.44,SSE,159,1.0,3.0,13,0.00,,---,0.00,VWS V14.00,2013-06-11 20:08:00,
2013-06-11 14:14:00,98.0,34.6,29.44,SSE,165,2.0,6.0,11,0.00,,---,0.00,VWS V14.00,2013-06-11 20:14:00,
2013-06-11 14:20:00,97.7,36.6,29.44,SW,218,6.0,6.0,12,0.00,,---,0.00,VWS V14.00,2013-06-11 20:20:00,
2013-06-11 14:25:00,97.7,36.6,29.44,SSE,162,2.0,9.0,12,0.00,,---,0.00,VWS V14.00,2013-06-11 20:25:00,
2013-06-11 14:30:00,97.6,38.5,29.44,SSW,196,5.0,5.0,13,0.00,,---,0.00,VWS V14.00,2013-06-11 20:30:00,
2013-06-11 14:36:00,98.5,37.2,29.43,South,171,4.0,12.0,12,0.00,,---,0.00,VWS V14.00,2013-06-11 20:36:00,
2013-06-11 14:42:00,98.2,34.8,29.42,South,178,0.0,13.0,11,0.00,,---,0.00,VWS V14.00,2013-06-11 20:42:00,
2013-06-11 14:47:00,98.7,37.3,29.42,South,190,8.0,8.0,12,0.00,,---,0.00,VWS V14.00,2013-06-11 20:47:00,
2013-06-11 14:52:00,99.4,37.9,29.42,SSE,165,5.0,9.0,12,0.00,,---,0.00,VWS V14.00,2013-06-11 20:52:00,
2013-06-11 14:58:00,98.3,32.5,29.43,SSW,202,4.0,15.0,10,0.00,,---,0.00,VWS V14.00,2013-06-11 20:58:00,
2013-06-11 15:04:00,98.7,39.4,29.43,SSE,161,1.0,12.0,13,0.00,,---,0.00,VWS V14.00,2013-06-11 21:04:00,
2013-06-11 15:09:00,98.0,34.6,29.44,South,180,6.0,13.0,11,0.00,,---,0.00,VWS V14.00,2013-06-11 21:09:00,
2013-06-11 15:15:00,98.2,37.0,29.43,South,172,1.0,5.0,12,0.00,,---,0.00,VWS V14.00,2013-06-11 21:15:00,
2013-06-11 15:20:00,98.3,37.0,29.42,SSW,203,9.0,13.0,12,0.00,,---,0.00,VWS V14.00,2013-06-11 21:20:00,
2013-06-11 15:25:00,98.4,34.9,29.43,South,171,3.0,11.0,11,0.00,,---,0.00,VWS V14.00,2013-06-11 21:25:00,
2013-06-11 15:31:00,98.4,34.9,29.43,South,187,5.0,12.0,11,0.00,,---,0.00,VWS V14.00,2013-06-11 21:31:00,
2013-06-11 15:37:00,98.4,39.2,29.43,South,191,3.0,4.0,13,0.00,,---,0.00,VWS V14.00,2013-06-11 21:37:00,
2013-06-11 15:42:00,98.3,39.1,29.43,South,188,1.0,10.0,13,0.00,,---,0.00,VWS V14.00,2013-06-11 21:42:00,
2013-06-11 15:47:00,98.2,40.9,29.42,East,101,3.0,3.0,14,0.00,,---,0.00,VWS V14.00,2013-06-11 21:47:00,
2013-06-11 15:52:00,98.4,37.1,29.43,SSE,165,8.0,8.0,12,0.00,,---,0.00,VWS V14.00,2013-06-11 21:52:00,
2013-06-11 15:58:00,97.8,36.7,29.43,South,176,2.0,10.0,12,0.00,,---,0.00,VWS V14.00,2013-06-11 21:58:00,
2013-06-11 16:03:00,98.2,37.0,29.45,SSW,195,4.0,6.0,12,0.00,,---,0.00,VWS V14.00,2013-06-11 22:03:00,
2013-06-11 16:08:00,97.8,36.7,29.46,SSW,192,2.0,10.0,12,0.00,,---,0.00,VWS V14.00,2013-06-11 22:08:00,
2013-06-11 16:13:00,97.2,40.1,29.45,ESE,122,0.0,1.0,14,0.00,,---,0.00,VWS V14.00,2013-06-11 22:13:00,
2013-06-11 16:18:00,96.9,38.0,29.45,South,191,6.0,6.0,13,0.00,,---,0.00,VWS V14.00,2013-06-11 22:18:00,
2013-06-11 16:23:00,97.0,36.0,29.45,South,184,0.0,12.0,12,0.00,,---,0.00,VWS V14.00,2013-06-11 22:23:00,
2013-06-11 16:28:00,97.0,36.0,29.45,South,178,5.0,6.0,12,0.00,,---,0.00,VWS V14.00,2013-06-11 22:28:00,
2013-06-11 16:33:00,97.1,38.1,29.45,SSE,165,2.0,4.0,13,0.00,,---,0.00,VWS V14.00,2013-06-11 22:33:00,
2013-06-11 16:38:00,95.9,39.1,29.45,SE,133,3.0,5.0,14,0.00,,---,0.00,VWS V14.00,2013-06-11 22:38:00,
2013-06-11 16:43:00,96.2,33.2,29.46,SSE,153,6.0,8.0,11,0.00,,---,0.00,VWS V14.00,2013-06-11 22:43:00,
2013-06-11 16:48:00,95.6,38.9,29.46,SSE,152,0.0,1.0,14,0.00,,---,0.00,VWS V14.00,2013-06-11 22:48:00,
2013-06-11 16:53:00,95.8,35.1,29.46,SSW,209,3.0,6.0,12,0.00,,---,0.00,VWS V14.00,2013-06-11 22:53:00,
2013-06-11 16:58:00,95.7,38.9,29.46,South,179,0.0,2.0,14,0.00,,---,0.00,VWS V14.00,2013-06-11 22:58:00,
2013-06-11 17:03:00,95.1,36.6,29.47,South,177,0.0,1.0,13,0.00,,---,0.00,VWS V14.00,2013-06-11 23:03:00,
2013-06-11 17:08:00,95.6,42.3,29.46,SSW,195,0.0,4.0,16,0.00,,---,0.00,VWS V14.00,2013-06-11 23:08:00,
2013-06-11 17:13:00,95.3,36.7,29.46,South,175,0.0,2.0,13,0.00,,---,0.00,VWS V14.00,2013-06-11 23:13:00,
2013-06-11 17:18:00,94.2,39.5,29.47,NE,51,0.0,1.0,15,0.00,,---,0.00,VWS V14.00,2013-06-11 23:18:00,
2013-06-11 17:23:00,93.9,39.3,29.47,SE,129,0.0,1.0,15,0.00,,---,0.00,VWS V14.00,2013-06-11 23:23:00,
2013-06-11 17:28:00,93.5,39.0,29.47,South,186,0.0,2.0,15,0.00,,---,0.00,VWS V14.00,2013-06-11 23:28:00,
2013-06-11 17:34:00,93.3,38.8,29.48,ENE,68,0.0,1.0,15,0.00,,---,0.00,VWS V14.00,2013-06-11 23:34:00,
2013-06-11 17:39:00,93.3,38.8,29.48,ESE,118,0.0,1.0,15,0.00,,---,0.00,VWS V14.00,2013-06-11 23:39:00,
2013-06-11 17:44:00,92.7,36.6,29.48,SSE,165,0.0,1.0,14,0.00,,---,0.00,VWS V14.00,2013-06-11 23:44:00,
2013-06-11 17:49:00,92.3,38.0,29.49,NNE,26,3.0,3.0,15,0.00,,---,0.00,VWS V14.00,2013-06-11 23:49:00,
2013-06-11 17:54:00,92.4,34.5,29.48,South,172,0.0,6.0,13,0.00,,---,0.00,VWS V14.00,2013-06-11 23:54:00,
2013-06-11 17:59:00,92.3,36.3,29.48,SE,141,0.0,2.0,14,0.00,,---,0.00,VWS V14.00,2013-06-11 23:59:00,
2013-06-11 18:04:00,92.3,39.7,29.45,SE,125,0.0,1.0,16,0.00,,---,0.00,VWS V14.00,2013-06-12 00:04:00,
2013-06-11 18:09:00,91.8,39.3,29.45,ENE,69,0.0,4.0,16,0.00,,---,0.00,VWS V14.00,2013-06-12 00:09:00,
2013-06-11 18:14:00,91.9,36.0,29.45,South,172,2.0,4.0,14,0.00,,---,0.00,VWS V14.00,2013-06-12 00:14:00,
2013-06-11 18:19:00,91.5,37.4,29.45,SSE,165,0.0,2.0,15,0.00,,---,0.00,VWS V14.00,2013-06-12 00:19:00,
2013-06-11 18:24:00,91.1,33.5,29.46,ESE,117,0.0,1.0,13,0.00,,---,0.00,VWS V14.00,2013-06-12 00:24:00,
2013-06-11 18:29:00,90.7,35.0,29.47,NE,54,0.0,1.0,14,0.00,,---,0.00,VWS V14.00,2013-06-12 00:29:00,
2013-06-11 18:34:00,90.1,36.3,29.47,NE,41,0.0,6.0,15,0.00,,---,0.00,VWS V14.00,2013-06-12 00:34:00,
2013-06-11 18:39:00,89.6,32.3,29.47,NNE,12,0.0,5.0,13,0.00,,---,0.00,VWS V14.00,2013-06-12 00:39:00,
2013-06-11 18:44:00,89.3,35.6,29.48,South,173,1.0,4.0,15,0.00,,---,0.00,VWS V14.00,2013-06-12 00:44:00,
2013-06-11 18:49:00,89.3,35.6,29.48,ENE,75,0.0,1.0,15,0.00,,---,0.00,VWS V14.00,2013-06-12 00:49:00,
2013-06-11 18:54:00,89.1,35.5,29.49,NW,323,1.0,5.0,15,0.00,,---,0.00,VWS V14.00,2013-06-12 00:54:00,
2013-06-11 18:59:00,88.8,36.9,29.50,NNE,20,0.0,5.0,16,0.00,,---,0.00,VWS V14.00,2013-06-12 00:59:00,
2013-06-11 19:04:00,88.5,35.0,29.45,SSE,158,0.0,2.0,15,0.00,,---,0.00,VWS V14.00,2013-06-12 01:04:00,
2013-06-11 19:09:00,88.3,34.8,29.47,SSE,164,0.0,1.0,15,0.00,,---,0.00,VWS V14.00,2013-06-12 01:09:00,
2013-06-11 19:14:00,87.8,34.5,29.47,SE,132,0.0,2.0,15,0.00,,---,0.00,VWS V14.00,2013-06-12 01:14:00,
2013-06-11 19:19:00,87.5,34.2,29.48,East,80,0.0,1.0,15,0.00,,---,0.00,VWS V14.00,2013-06-12 01:19:00,
2013-06-11 19:24:00,87.3,34.0,29.48,SSE,165,0.0,1.0,15,0.00,,---,0.00,VWS V14.00,2013-06-12 01:24:00,
2013-06-11 19:29:00,87.1,33.9,29.48,ESE,107,0.0,1.0,15,0.00,,---,0.00,VWS V14.00,2013-06-12 01:29:00,
2013-06-11 19:34:00,86.9,33.7,29.48,East,96,0.0,2.0,15,0.00,,---,0.00,VWS V14.00,2013-06-12 01:34:00,
2013-06-11 19:39:00,86.8,35.3,29.49,SSW,196,0.0,5.0,16,0.00,,---,0.00,VWS V14.00,2013-06-12 01:39:00,
2013-06-11 19:44:00,86.8,33.7,29.49,SSE,153,0.0,0.0,15,0.00,,---,0.00,VWS V14.00,2013-06-12 01:44:00,
2013-06-11 19:49:00,86.7,33.6,29.50,South,180,0.0,3.0,15,0.00,,---,0.00,VWS V14.00,2013-06-12 01:49:00,
2013-06-11 19:54:00,86.6,35.1,29.50,South,180,1.0,5.0,16,0.00,,---,0.00,VWS V14.00,2013-06-12 01:54:00,
2013-06-11 19:59:00,86.3,33.3,29.51,SSW,194,0.0,4.0,15,0.00,,---,0.00,VWS V14.00,2013-06-12 01:59:00,
2013-06-11 20:04:00,86.1,33.1,29.49,South,172,0.0,3.0,15,0.00,,---,0.00,VWS V14.00,2013-06-12 02:04:00,
2013-06-11 20:09:00,85.9,32.9,29.49,South,171,1.0,3.0,15,0.00,,---,0.00,VWS V14.00,2013-06-12 02:09:00,
2013-06-11 20:14:00,85.7,32.8,29.50,South,169,2.0,2.0,15,0.00,,---,0.00,VWS V14.00,2013-06-12 02:14:00,
2013-06-11 20:19:00,85.4,34.2,29.51,SSE,158,1.0,1.0,16,0.00,,---,0.00,VWS V14.00,2013-06-12 02:19:00,
2013-06-11 20:24:00,85.1,33.9,29.51,SSE,157,0.0,2.0,16,0.00,,---,0.00,VWS V14.00,2013-06-12 02:24:00,
2013-06-11 20:29:00,84.9,33.8,29.51,SSE,167,3.0,3.0,16,0.00,,---,0.00,VWS V14.00,2013-06-12 02:29:00,
2013-06-11 20:34:00,84.6,33.5,29.52,South,178,0.0,5.0,16,0.00,,---,0.00,VWS V14.00,2013-06-12 02:34:00,
2013-06-11 20:39:00,84.4,33.3,29.52,NW,316,0.0,0.0,16,0.00,,---,0.00,VWS V14.00,2013-06-12 02:39:00,
2013-06-11 20:44:00,84.2,34.7,29.52,SSE,164,0.0,1.0,17,0.00,,---,0.00,VWS V14.00,2013-06-12 02:44:00,
2013-06-11 20:49:00,83.9,34.5,29.53,ESE,104,0.0,1.0,17,0.00,,---,0.00,VWS V14.00,2013-06-12 02:49:00,
2013-06-11 20:54:00,83.6,35.7,29.53,South,173,0.0,2.0,18,0.00,,---,0.00,VWS V14.00,2013-06-12 02:54:00,
2013-06-11 20:59:00,83.5,34.1,29.54,South,182,0.0,3.0,17,0.00,,---,0.00,VWS V14.00,2013-06-12 02:59:00,
2013-06-11 21:04:00,83.4,34.1,29.53,South,180,0.0,1.0,17,0.00,,---,0.00,VWS V14.00,2013-06-12 03:04:00,
2013-06-11 21:09:00,83.2,33.9,29.54,South,180,0.0,5.0,17,0.00,,---,0.00,VWS V14.00,2013-06-12 03:09:00,
2013-06-11 21:14:00,83.0,33.7,29.55,South,180,0.0,2.0,17,0.00,,---,0.00,VWS V14.00,2013-06-12 03:14:00,
2013-06-11 21:19:00,82.7,33.5,29.55,South,180,0.0,0.0,17,0.00,,---,0.00,VWS V14.00,2013-06-12 03:19:00,
2013-06-11 21:24:00,82.5,34.8,29.55,South,180,0.0,1.0,18,0.00,,---,0.00,VWS V14.00,2013-06-12 03:24:00,
2013-06-11 21:29:00,82.3,34.6,29.56,South,180,0.0,0.0,18,0.00,,---,0.00,VWS V14.00,2013-06-12 03:29:00,
2013-06-11 21:34:00,82.0,35.7,29.56,South,180,0.0,0.0,19,0.00,,---,0.00,VWS V14.00,2013-06-12 03:34:00,
2013-06-11 21:39:00,81.6,35.4,29.57,South,180,0.0,0.0,19,0.00,,---,0.00,VWS V14.00,2013-06-12 03:39:00,
2013-06-11 21:44:00,81.2,36.4,29.58,South,180,0.0,0.0,20,0.00,,---,0.00,VWS V14.00,2013-06-12 03:44:00,
2013-06-11 21:49:00,80.8,34.7,29.58,South,180,0.0,0.0,19,0.00,,---,0.00,VWS V14.00,2013-06-12 03:49:00,
2013-06-11 21:54:00,80.3,34.3,29.58,South,180,0.0,0.0,19,0.00,,---,0.00,VWS V14.00,2013-06-12 03:54:00,
2013-06-11 21:59:00,80.0,35.4,29.59,South,180,0.0,0.0,20,0.00,,---,0.00,VWS V14.00,2013-06-12 03:59:00,
2013-06-11 22:01:00,79.9,35.3,29.59,South,180,0.0,0.0,20,0.00,,---,0.00,VWS V14.00,2013-06-12 04:01:00,
2013-06-11 22:02:00,79.9,35.3,29.59,South,180,0.0,0.0,20,0.00,,---,0.00,VWS V14.00,2013-06-12 04:02:00,
2013-06-11 22:06:00,79.7,35.1,29.57,South,180,0.0,0.0,20,0.00,,---,0.00,VWS V14.00,2013-06-12 04:06:00,
2013-06-11 22:09:00,79.5,36.2,29.56,South,180,0.0,0.0,21,0.00,,---,0.00,VWS V14.00,2013-06-12 04:09:00,
2013-06-11 22:12:00,79.3,36.0,29.56,South,180,0.0,0.0,21,0.00,,---,0.00,VWS V14.00,2013-06-12 04:12:00,
2013-06-11 22:17:00,78.9,35.7,29.57,South,180,0.0,0.0,21,0.00,,---,0.00,VWS V14.00,2013-06-12 04:17:00,
2013-06-11 22:22:00,78.7,35.5,29.57,South,180,0.0,0.0,21,0.00,,---,0.00,VWS V14.00,2013-06-12 04:22:00,
2013-06-11 22:27:00,78.3,37.5,29.58,South,180,0.0,0.0,23,0.00,,---,0.00,VWS V14.00,2013-06-12 04:27:00,
2013-06-11 22:32:00,77.9,36.0,29.59,South,180,0.0,0.0,22,0.00,,---,0.00,VWS V14.00,2013-06-12 04:32:00,
2013-06-11 22:37:00,77.5,36.8,29.59,South,180,0.0,0.0,23,0.00,,---,0.00,VWS V14.00,2013-06-12 04:37:00,
2013-06-11 22:42:00,77.0,35.3,29.59,South,180,0.0,0.0,22,0.00,,---,0.00,VWS V14.00,2013-06-12 04:42:00,
2013-06-11 22:47:00,76.7,35.0,29.59,South,180,0.0,0.0,22,0.00,,---,0.00,VWS V14.00,2013-06-12 04:47:00,
2013-06-11 22:52:00,76.3,35.8,29.60,South,180,0.0,0.0,23,0.00,,---,0.00,VWS V14.00,2013-06-12 04:52:00,
2013-06-11 22:57:00,76.0,35.6,29.60,South,180,0.0,0.0,23,0.00,,---,0.00,VWS V14.00,2013-06-12 04:57:00,
2013-06-11 23:03:00,75.5,35.2,29.58,South,180,0.0,0.0,23,0.00,,---,0.00,VWS V14.00,2013-06-12 05:03:00,
2013-06-11 23:09:00,75.1,34.8,29.59,South,180,0.0,0.0,23,0.00,,---,0.00,VWS V14.00,2013-06-12 05:09:00,
2013-06-11 23:14:00,74.9,34.6,29.60,South,180,0.0,0.0,23,0.00,,---,0.00,VWS V14.00,2013-06-12 05:14:00,
2013-06-11 23:19:00,74.7,34.5,29.60,South,180,0.0,0.0,23,0.00,,---,0.00,VWS V14.00,2013-06-12 05:19:00,
2013-06-11 23:25:00,74.3,35.2,29.60,South,180,0.0,0.0,24,0.00,,---,0.00,VWS V14.00,2013-06-12 05:25:00,
2013-06-11 23:30:00,74.1,36.1,29.60,South,180,0.0,0.0,25,0.00,,---,0.00,VWS V14.00,2013-06-12 05:30:00,
2013-06-11 23:36:00,73.8,35.8,29.61,South,180,0.0,0.0,25,0.00,,---,0.00,VWS V14.00,2013-06-12 05:36:00,
2013-06-11 23:41:00,73.5,36.5,29.61,South,180,0.0,0.0,26,0.00,,---,0.00,VWS V14.00,2013-06-12 05:41:00,
2013-06-11 23:47:00,73.1,34.2,29.63,NE,40,0.0,1.0,24,0.00,,---,0.00,VWS V14.00,2013-06-12 05:47:00,
2013-06-11 23:52:00,73.2,31.0,29.63,NE,42,2.0,3.0,21,0.00,,---,0.00,VWS V14.00,2013-06-12 05:52:00,
2013-06-11 23:57:00,73.6,30.1,29.62,SE,144,0.0,0.0,20,0.00,,---,0.00,VWS V14.00,2013-06-12 05:57:00,